RH
100 100 100 95 89 99 99 86 67 60 53 51 54 58 55 41 44 40 38 43 31 36 34 47 26 12 9 7 6 7 8 9 11 13 13 15 18 17 18 20 21 23 24 27 32 32 33 39 53 62 59 69 79 72
100 96 82 93 98 100 95 73 59 59 53 59 58 68 58 48 48 42 37 45 36 36 28 35 40 29 17 6 7 8 8 10 12 13 14 18 20 23 23 24 30 31 31 31 34 29 30 38 49 62 71 63 66 80
100 98 96 98 97 87 72 74 73 56 59 62 78 68 63 58 49 48 45 45 42 35 27 30 44 21 11 8 7 8 10 11 13 13 15 17 19 18 21 27 37 44 42 39 39 34 30 31 36 48 65 80 69 67
99 100 100 97 85 77 89 81 77 62 62 77 88 73 74 63 50 51 51 48 34 30 32 31 40 21 15 7 7 7 9 11 12 14 15 16 19 18 20 26 27 27 30 34 35 28 35 38 36 42 51 70 91 88
100 100 100 90 83 98 88 89 88 65 70 74 82 78 75 57 57 52 57 48 37 29 31 33 48 52 21 9 9 8 9 11 12 14 14 16 18 23 24 24 19 23 25 28 40 42 42 39 37 34 33 42 70 94
90 85 85 100 100 99 88 86 82 77 78 83 91 79 64 58 57 47 58 41 40 32 26 33 52 61 30 20 10 8 9 10 12 12 14 15 18 22 24 24 23 24 22 22 27 32 42 56 51 35 32 38 36 54
100 100 100 100 95 98 100 100 100 91 89 85 86 73 62 55 49 48 46 41 34 32 26 32 46 61 49 33 10 8 9 10 11 12 13 15 16 18 20 21 19 20 19 20 28 39 39 43 53 53 46 44 44 41
96 98 94 100 100 100 100 100 100 99 99 91 87 70 54 50 40 38 34 31 24 24 30 28 44 56 61 50 40 13 10 10 10 11 12 13 14 16 18 18 19 20 19 21 24 31 35 20 23 40 36 41 43 51
100 100 100 100 100 100 100 100 100 100 100 100 90 72 56 49 36 32 34 26 19 20 26 29 38 57 66 69 87 56 15 12 11 10 10 12 12 13 15 16 16 13 15 16 20 18 16 13 12 18 24 34 36 35
100 100 100 100 100 100 100 100 100 100 100 95 88 78 57 55 46 31 32 23 22 19 23 26 36 51 60 54 87 78 43 14 12 11 10 10 11 12 13 16 15 12 14 14 15 14 12 14 18 19 20 28 34 34
100 100 100 100 100 100 100 100 100 100 100 100 88 81 74 71 53 44 35 30 25 28 23 26 36 42 52 62 66 81 64 34 16 12 10 9 10 10 11 12 13 12 13 13 12 13 12 13 15 16 17 20 30 34
100 100 100 100 100 100 100 100 100 100 100 99 96 90 87 74 72 57 42 41 40 26 24 27 35 49 52 53 65 77 82 68 17 13 12 12 11 10 11 12 13 12 11 12 12 12 11 11 12 12 20 25 30 34
100 100 100 100 100 100 100 100 100 100 100 100 100 99 97 83 76 62 50 41 44 37 30 34 41 45 54 54 61 52 76 40 16 14 12 13 12 10 10 12 12 14 11 13 14 12 11 10 12 14 19 21 25 29
100 100 100 100 100 100 100 100 100 100 100 100 96 100 86 78 72 65 48 45 43 35 42 49 49 38 50 44 52 67 74 68 17 16 12 12 14 12 11 11 12 13 13 11 16 14 12 8 8 13 19 25 26 27
100 100 100 100 100 100 100 100 100 100 100 100 98 94 90 78 68 55 48 46 49 49 58 65 54 50 47 63 26 45 58 42 17 15 13 10 11 13 12 12 12 13 13 14 16 18 16 11 8 8 16 24 26 26
100 100 100 100 100 100 100 100 98 99 97 97 95 93 81 75 63 60 46 61 56 47 61 52 47 47 44 58 67 37 28 40 17 13 10 10 9 11 11 11 12 12 13 14 16 18 19 15 12 8 9 17 24 28
100 100 100 100 100 100 100 100 100 100 100 100 92 88 79 67 64 55 55 67 48 68 58 50 45 44 47 29 62 54 33 19 14 12 8 8 8 9 10 9 11 11 12 14 15 19 20 20 17 14 10 11 16 23
100 100 100 100 100 100 100 100 100 100 100 95 89 77 65 64 65 53 58 68 58 79 56 55 45 45 37 43 45 17 25 7 8 9 6 6 6 6 9 7 7 10 11 13 13 15 22 23 21 17 15 15 16 21
100 100 100 100 100 100 94 93 98 99 98 96 84 68 76 74 60 56 64 59 64 81 57 51 35 53 56 27 29 37 11 6 6 6 5 4 5 4 6 7 6 7 10 10 13 14 16 23 25 23 22 19 18 20
100 100 100 100 100 100 97 99 100 100 97 86 67 66 70 62 59 69 67 78 92 62 57 38 61 45 28 49 20 21 6 4 4 4 4 4 4 4 4 5 5 5 7 10 10 13 15 18 24 26 26 27 26 24
100 100 100 100 100 100 100 100 100 100 84 73 66 65 63 61 71 68 76 87 73 58 44 44 57 37 40 22 30 8 4 3 3 3 4 3 3 4 4 4 4 4 5 8 10 10 13 16 20 26 28 27 29 28
100 100 100 100 100 100 100 100 99 84 76 73 68 69 73 77 85 88 73 82 67 42 42 54 54 22 26 22 7 5 3 3 3 3 3 3 3 4 4 4 4 4 5 6 8 10 12 13 15 19 26 31 30 30
100 100 100 100 100 100 100 99 90 90 64 70 73 71 88 98 88 77 78 73 52 44 51 48 26 26 17 8 5 4 3 2 3 3 3 4 4 3 4 4 4 4 4 5 7 8 10 13 15 16 20 26 31 33
100 100 100 100 99 100 100 92 64 52 76 81 74 82 89 84 71 75 77 41 34 45 51 17 30 13 6 4 4 3 2 2 3 3 3 3 4 4 4 4 4 4 4 5 6 7 8 11 14 16 18 23 26 27
100 100 100 100 100 99 81 68 62 64 80 88 80 83 84 68 69 70 60 36 38 36 13 20 8 4 3 4 3 2 2 2 2 2 2 3 3 3 4 4 5 4 4 5 6 6 7 9 12 14 16 21 28 31
97 85 88 87 74 64 64 68 79 88 82 84 86 78 75 73 63 53 44 26 13 17 9 5 3 3 3 3 2 2 2 2 2 2 2 2 2 3 4 4 5 5 5 5 6 6 7 9 10 13 15 17 22 27
81 91 100 87 64 67 78 89 82 80 79 75 77 68 58 57 64 34 14 10 8 6 4 3 3 3 2 2 2 2 2 2 2 2 2 2 3 3 4 4 4 5 6 6 6 6 7 8 10 12 13 16 21 24
100 90 66 63 71 78 84 82 81 81 74 68 62 56 45 34 30 10 7 7 5 3 2 3 2 2 2 2 2 2 2 2 2 2 2 3 3 4 4 4 4 5 5 6 6 6 7 8 9 10 12 14 18 21
74 68 78 87 88 88 93 83 79 68 55 45 45 36 17 9 8 6 6 6 3 2 3 3 2 2 2 2 2 2 2 2 2 2 2 3 4 4 4 4 4 5 5 6 6 6 7 8 9 10 11 13 17 20
82 79 76 66 64 61 50 50 42 25 14 11 10 8 7 6 6 5 5 3 2 2 3 2 2 2 2 2 3 3 3 3 3 3 3 4 4 4 4 4 5 5 5 6 6 6 7 8 8 9 11 14 16 18
39 38 35 30 25 18 14 13 13 11 10 8 7 5 4 3 5 6 2 2 2 2 3 2 2 2 3 3 3 3 4 4 3 4 4 4 4 4 4 5 6 5 6 6 7 7 8 9 9 10 12 14 16 17
13 13 12 11 10 11 9 9 10 9 9 7 4 3 2 4 4 2 3 3 2 2 2 2 2 2 3 3 4 4 4 3 4 4 5 5 4 4 4 5 5 6 6 7 7 8 9 10 12 13 14 15 15 16
9 9 8 9 8 8 8 7 7 7 5 4 2 2 4 3 3 3 3 3 2 2 2 3 3 4 4 4 4 4 4 4 4 4 4 5 5 4 5 5 6 6 7 8 9 10 11 12 13 14 14 14 14 14
Wind_Speed
59 57 56 55 52 56 57 60 61 59 59 61 62 67 72 76 78 82 85 87 89 92 92 99 82 79 54 47 40 32 28 25 26 28 28 28 28 29 28 27 28 30 30 28 29 29 25 27 26 25 26 26 26 28
59 58 55 53 55 57 58 61 59 60 59 59 63 69 74 78 81 84 86 88 89 93 90 90 86 76 57 48 34 32 28 26 27 28 29 28 30 30 30 27 28 31 32 31 31 31 29 28 27 26 25 27 27 26
61 61 56 55 58 57 57 58 62 61 59 62 66 71 75 80 83 86 88 91 94 93 94 95 90 74 60 48 36 32 27 25 25 30 31 33 32 31 29 24 26 34 34 35 33 33 32 31 29 27 27 27 27 27
61 58 57 59 57 57 56 60 63 63 61 65 69 75 76 82 85 88 91 93 92 94 98 95 90 79 64 53 47 34 30 25 24 28 32 34 34 32 29 30 33 39 36 36 36 35 32 34 32 31 31 29 28 27
58 57 56 55 56 56 60 63 64 67 67 69 72 77 80 84 88 90 93 94 94 94 99 100 105 99 83 58 53 39 34 29 25 26 29 32 33 34 36 37 38 37 37 35 37 37 33 36 35 35 34 32 31 30
56 55 53 55 58 59 64 61 66 70 70 73 75 81 85 87 90 90 95 95 98 97 95 101 108 109 99 81 58 47 39 33 28 27 28 30 32 35 36 39 39 41 36 34 36 37 35 40 37 40 38 35 35 34
54 54 56 59 60 54 61 68 70 73 77 79 80 87 89 89 92 93 96 97 98 97 97 100 107 110 102 91 68 52 43 40 33 29 29 30 34 34 36 38 42 39 34 31 29 37 42 43 41 42 42 38 36 37
60 61 59 53 59 59 64 69 73 77 79 82 87 91 91 93 94 95 98 99 95 95 99 102 104 109 100 91 88 66 55 47 40 32 31 31 33 35 35 35 37 38 33 32 38 43 49 49 46 47 44 43 42 39
57 62 65 62 63 62 62 70 74 79 82 84 89 94 94 97 97 98 101 99 90 92 100 104 100 110 102 92 101 88 62 54 47 40 32 31 33 34 36 37 39 35 31 34 41 48 51 45 40 44 46 45 45 43
63 63 68 68 63 66 63 71 76 79 84 87 90 96 98 100 102 102 103 101 96 98 102 101 100 112 98 88 106 95 77 59 51 46 39 32 31 33 34 35 40 34 32 33 38 43 42 37 38 41 42 44 46 45
62 59 67 73 71 70 71 73 78 82 86 90 93 98 100 104 107 110 109 105 103 106 100 106 108 103 112 98 95 98 87 72 58 49 45 39 35 33 32 34 37 34 31 31 31 34 37 36 39 43 40 38 45 45
64 64 77 74 74 75 76 79 78 84 90 93 95 98 101 104 109 111 111 113 113 109 105 109 109 115 106 94 95 89 103 91 56 47 44 39 39 34 30 30 35 34 29 28 28 28 31 36 36 36 37 42 43 44
69 77 81 78 78 78 78 80 84 87 90 92 93 97 101 108 108 112 115 114 114 115 113 113 118 109 114 103 97 81 103 85 57 46 42 38 39 35 30 28 30 33 29 26 27 27 29 33 37 36 40 43 44 45
75 81 85 81 80 83 84 85 89 91 93 94 99 98 104 108 112 115 116 115 118 114 118 119 123 112 113 100 99 99 96 93 66 52 43 38 38 36 32 29 29 31 31 26 26 28 28 31 36 38 40 44 45 46
83 85 86 84 87 89 91 92 94 97 97 99 100 103 106 112 114 116 117 117 120 122 122 125 126 122 115 109 81 97 101 92 67 55 48 43 38 36 34 31 32 31 32 29 27 28 29 31 33 39 43 46 48 47
84 88 90 89 91 93 97 100 101 100 102 101 106 106 107 110 115 118 116 120 121 122 125 126 124 118 110 108 110 88 73 88 66 55 47 47 42 39 37 34 33 35 33 32 29 29 30 31 32 35 42 46 49 49
93 94 96 96 97 99 100 103 103 102 104 107 107 107 110 114 115 117 120 121 120 125 128 127 119 118 107 94 102 89 81 74 63 54 47 45 45 40 41 38 36 37 36 34 33 31 32 31 32 34 36 40 45 48
99 100 98 100 103 107 106 107 107 108 108 109 109 112 114 116 118 117 120 123 125 129 133 131 123 123 95 93 95 74 79 52 49 49 50 42 44 42 41 41 39 38 38 36 36 34 34 34 33 35 37 39 41 45
103 104 105 107 109 109 108 107 107 107 109 110 114 115 115 117 121 121 123 127 130 134 132 133 111 122 117 85 88 93 69 53 49 48 50 40 42 42 40 44 43 40 41 39 37 38 36 36 36 36 36 38 40 42
100 107 111 110 110 109 110 105 112 113 112 116 117 117 118 122 125 128 129 131 136 138 136 118 125 113 95 104 86 86 63 52 47 49 49 45 40 41 41 43 46 41 41 42 40 40 40 38 37 37 37 38 39 40
104 110 113 110 107 107 109 110 111 113 117 118 119 119 122 127 127 128 133 136 137 136 127 119 124 108 103 88 91 77 63 51 46 42 45 46 36 40 40 41 45 43 40 43 43 41 42 42 40 38 38 38 39 39
107 109 111 111 111 113 109 114 115 117 120 120 121 123 127 129 131 135 136 139 139 128 119 123 118 93 96 91 72 68 61 52 45 41 41 41 38 35 37 40 43 42 40 41 44 45 44 43 42 40 39 39 38 39
114 118 116 114 115 115 113 115 121 125 123 121 125 127 127 133 137 138 139 141 136 124 126 115 98 99 91 79 71 65 56 50 45 42 39 36 39 35 35 38 39 39 39 40 43 44 43 43 43 42 40 39 40 39
118 121 124 122 120 118 121 121 120 122 123 126 128 131 131 135 138 138 142 129 115 121 113 89 98 88 79 70 64 59 52 47 44 41 38 37 36 36 33 35 36 35 35 36 40 42 42 43 44 43 41 40 40 39
122 123 120 119 122 125 127 127 127 127 127 131 132 135 135 135 139 139 134 114 116 108 86 94 81 72 63 61 59 55 50 45 43 42 39 42 37 35 34 32 33 33 33 35 38 39 40 42 43 43 42 41 41 41
120 122 120 120 123 127 127 128 130 133 133 133 135 137 139 136 132 127 122 103 89 92 84 77 68 64 59 57 55 50 46 43 42 42 39 42 38 34 36 32 29 32 34 33 37 38 38 39 40 41 42 41 41 42
123 123 126 131 130 129 130 133 134 134 134 133 135 132 127 125 129 111 92 86 81 77 71 68 60 56 57 53 49 43 38 37 38 39 37 37 34 30 35 36 32 30 34 32 34 35 36 36 38 40 41 41 41 40
129 133 130 130 132 133 134 134 135 134 132 129 129 124 117 112 106 87 82 79 77 68 57 54 55 51 50 49 43 40 36 34 35 33 29 30 28 28 31 35 32 31 32 31 32 33 33 34 37 38 39 39 39 40
131 128 129 132 133 133 137 134 132 128 124 118 115 106 93 86 80 75 74 77 70 53 46 48 50 44 44 41 38 35 35 33 35 32 27 23 21 24 28 29 29 28 28 27 29 30 31 31 34 35 35 36 36 38
133 133 130 127 125 122 118 115 110 103 97 90 84 77 74 72 71 69 67 58 46 41 42 44 41 40 38 34 32 27 27 30 32 31 27 23 20 21 23 23 23 23 23 22 23 25 27 29 31 32 32 32 34 36
117 114 111 106 101 94 90 88 85 83 78 75 71 67 63 56 52 66 52 42 38 34 36 41 39 35 31 30 30 27 22 25 24 23 21 21 24 22 18 15 16 16 15 15 17 20 23 25 27 27 29 30 32 32
86 84 83 78 75 75 74 72 70 69 67 63 62 57 46 39 47 42 40 39 36 34 35 32 31 29 29 29 27 26 24 19 16 14 15 19 22 18 13 12 12 11 11 11 13 16 19 21 23 25 26 27 28 29
70 68 65 65 66 63 65 64 60 55 52 53 50 36 35 35 34 32 35 34 33 30 28 26 25 24 23 22 19 18 17 16 14 13 13 15 17 15 13 11 9 8 7 8 11 13 16 18 20 22 23 24 24 25
Wind_Direction
257 262 266 267 272 277 282 285 288 295 303 312 319 324 327 329 333 335 340 343 350 352 357 3 356 345 352 348 343 334 321 306 288 274 269 260 257 256 254 251 252 250 248 246 247 247 246 251 252 246 239 240 243 246
252 259 264 269 273 277 281 282 287 293 304 312 319 324 324 326 330 332 338 341 344 347 349 355 0 351 350 342 346 342 324 312 294 284 277 271 263 259 259 256 257 255 250 249 249 249 246 245 246 248 247 242 241 241
254 259 265 271 274 277 281 288 293 299 306 313 317 319 323 323 326 330 334 339 341 346 348 352 357 353 346 340 344 344 328 311 298 285 279 273 267 261 256 253 252 255 251 247 245 247 248 246 246 248 250 250 248 243
254 260 266 270 274 278 285 291 296 300 308 312 315 316 320 320 324 328 330 336 340 346 351 350 357 354 346 340 342 342 334 318 298 286 279 274 274 272 264 256 252 253 257 261 259 252 250 250 247 242 243 246 247 247
253 259 265 270 275 283 287 292 296 302 308 310 313 313 314 319 322 326 328 333 338 343 348 351 357 359 360 350 350 342 337 329 309 288 279 275 273 271 267 264 260 260 258 256 257 258 253 253 252 250 249 241 239 241
255 260 267 272 277 284 289 291 298 302 305 307 308 310 312 317 319 324 326 331 335 341 348 351 360 2 357 356 349 344 339 332 317 302 284 275 272 270 270 271 268 264 262 261 262 264 257 257 253 253 248 249 249 243
256 262 265 273 279 285 288 292 295 299 302 304 307 307 311 314 318 322 325 329 333 338 345 349 356 0 1 3 356 348 339 335 324 310 295 282 277 274 269 269 272 270 269 265 256 254 254 250 248 246 247 247 248 249
257 262 265 277 277 282 285 288 293 297 300 303 305 307 310 314 318 320 323 328 333 341 343 346 352 358 1 6 3 353 343 335 326 314 301 292 283 278 277 273 272 272 269 260 253 248 249 252 244 244 244 241 240 243
255 260 264 268 273 280 283 287 290 295 299 301 303 305 309 312 315 318 322 328 334 338 341 343 352 355 359 0 3 359 345 336 328 318 307 298 292 288 283 280 276 274 268 258 252 254 256 261 256 248 244 242 242 239
252 258 264 267 272 279 281 283 287 292 296 300 301 303 309 311 315 318 324 327 334 336 344 341 351 351 359 357 356 356 353 337 329 321 312 302 292 285 283 280 278 277 270 265 258 259 262 257 254 253 248 245 244 244
252 254 264 264 272 276 279 283 287 291 294 296 300 304 308 311 313 316 320 326 330 331 337 339 347 351 350 354 354 357 351 343 332 323 316 310 299 292 288 284 282 278 272 269 259 252 254 251 246 243 242 243 242 244
253 255 259 264 269 273 277 282 285 286 290 296 300 303 306 309 311 314 319 322 324 330 335 338 344 345 346 353 350 348 352 344 332 324 319 315 302 296 291 284 280 278 273 266 262 258 249 247 245 242 237 239 239 241
244 247 257 264 269 274 277 280 281 286 291 295 298 302 304 305 309 313 314 321 324 325 331 333 339 341 345 350 349 348 353 346 333 322 316 311 302 296 291 286 280 278 273 266 266 259 252 249 243 240 239 239 241 241
249 255 258 266 270 273 276 280 282 285 289 293 295 300 301 305 308 310 313 318 319 326 328 333 333 339 341 347 344 347 348 344 332 322 312 309 301 298 290 285 278 273 272 263 262 261 253 250 246 240 235 237 241 242
248 255 261 264 268 271 274 277 281 285 289 291 294 297 302 303 307 308 313 315 320 320 325 327 332 334 338 342 341 340 343 344 332 319 310 304 300 294 288 279 275 270 268 265 263 262 255 249 247 241 236 237 240 242
251 255 260 264 267 270 274 277 279 282 285 289 292 297 300 302 304 306 312 313 316 321 323 324 329 333 338 339 339 337 339 340 334 316 305 299 296 292 286 276 269 270 265 262 259 260 259 253 249 244 240 239 239 241
252 256 259 263 267 270 273 276 280 283 286 290 294 296 298 301 303 307 310 312 316 317 319 325 327 330 334 331 339 337 336 333 331 313 301 294 291 287 281 276 269 266 265 262 256 256 256 255 250 245 242 242 242 242
252 256 259 262 266 268 272 275 278 283 286 290 293 296 298 299 302 307 310 312 312 314 320 321 328 327 333 338 332 329 330 326 322 311 298 291 286 284 276 273 268 263 261 258 258 252 251 253 252 248 243 241 240 240
254 257 260 263 266 270 274 277 281 284 286 288 292 295 297 300 302 306 308 310 312 315 318 318 328 328 329 327 327 330 324 321 316 306 297 291 282 280 273 268 266 260 256 256 252 252 250 248 249 249 249 247 244 243
254 258 261 265 268 270 275 278 279 283 285 289 291 294 296 299 301 304 305 308 311 313 316 324 326 324 325 330 325 324 319 316 310 303 294 288 280 276 270 264 263 259 255 252 250 247 248 247 247 247 247 247 247 247
256 259 264 268 269 271 273 277 278 282 285 289 290 294 295 297 301 304 305 306 310 313 320 325 324 323 325 323 324 317 315 309 305 298 289 287 280 274 269 263 261 259 255 251 250 247 246 246 245 245 247 247 247 248
256 259 263 265 266 270 273 275 280 282 285 289 292 294 295 296 299 302 305 306 308 315 322 322 324 318 321 319 317 314 311 308 302 294 288 287 278 271 267 263 260 259 255 252 249 247 245 245 246 244 244 246 249 251
258 260 263 265 266 268 274 277 279 280 284 286 288 292 294 296 298 300 304 305 310 316 317 321 316 319 316 314 313 310 306 303 298 292 288 279 275 273 266 263 262 262 259 252 249 249 245 243 245 246 244 243 245 248
257 259 262 265 269 271 275 277 280 282 283 285 289 291 294 294 298 301 303 309 314 314 318 314 318 312 310 310 308 302 302 299 294 290 284 275 273 274 272 266 263 261 259 254 251 249 245 240 240 243 245 246 246 247
256 260 263 266 268 270 273 275 278 281 284 286 288 291 293 297 299 302 303 308 312 312 313 312 308 308 308 304 299 300 302 298 293 289 282 277 277 273 270 264 263 261 257 254 252 250 246 240 237 238 240 241 243 247
258 262 263 266 269 272 275 277 280 281 284 286 289 291 294 297 301 301 306 308 307 311 307 306 307 305 302 298 301 303 303 301 298 293 290 284 287 281 273 264 257 258 256 252 250 249 244 239 235 234 238 239 239 241
260 262 264 267 271 273 275 278 280 283 285 288 290 294 297 299 300 302 307 306 306 304 305 304 304 301 299 301 302 303 303 302 299 297 296 291 293 289 278 270 258 250 252 251 249 247 243 239 235 233 235 237 239 240
260 264 268 271 273 274 276 279 282 284 287 290 293 296 297 299 302 303 303 303 301 301 304 303 297 296 297 301 304 304 301 296 293 292 296 293 291 288 278 271 262 251 249 249 248 247 242 239 238 237 239 239 240 242
266 270 273 273 275 277 278 280 283 285 288 293 294 295 295 299 300 299 300 298 297 306 301 293 295 304 305 306 302 299 296 291 287 289 289 285 285 282 274 269 263 256 252 250 248 247 245 242 240 239 241 242 242 243
268 271 272 274 275 277 279 281 285 287 289 290 293 294 297 297 296 298 291 294 302 301 300 296 299 303 304 301 300 303 300 297 297 299 302 287 263 260 265 267 260 255 254 251 250 250 248 246 242 242 243 244 244 245
266 268 270 273 275 278 281 283 283 284 288 290 292 292 290 294 296 285 297 303 302 300 292 288 293 299 295 292 294 293 288 290 298 302 301 284 271 263 262 260 253 251 249 249 250 250 249 247 247 246 245 246 247 248
266 268 270 274 277 278 280 283 283 284 286 287 285 286 293 291 285 298 301 301 300 294 289 290 292 290 290 297 303 306 300 293 303 303 297 285 279 272 255 241 236 233 236 241 246 248 248 248 249 251 252 253 253 253
267 269 272 275 276 278 277 277 281 284 285 282 282 292 290 291 295 297 294 293 291 290 289 291 295 298 303 306 306 305 305 303 301 294 295 295 287 266 238 225 222 225 236 249 257 257 255 252 251 253 255 256 256 256